Location: Bittkow
(50.3000°N, 19.0000°E)
Time: 13:56:04
(UTC+00:00)

Iridium 2 - Pass Details

Date: 19 September 2020
Orbit: 505 x 514 km, 85.5° (Epoch: 25 October)

Event Time Altitude Azimuth Distance (km) Brightness Sun altitude
Exits shadow 02:39:21 36° 213° (SSW) 820 4.2 -17.3°
Maximum altitude 02:40:40 61° 277° (W) 583 3.6 -17.1°
Drops below altitude 10° 02:44:25 10° 359° (N) 1,734 6.6 -16.6°
Sets 02:46:35 0° 3° (N) 2,626 7.6 -16.3°
